QPF
0.00 0.00 0.00 0.00 0.01 0.02 0.02 0.01 0.02 0.02 0.03 0.04 0.03 0.04 0.05 0.04 0.04 0.03 0.02 0.01 0.02 0.04 0.06 0.07 0.09 0.12 0.14 0.14 0.14 0.12 0.12 0.13 0.12 0.11 0.09 0.08 0.06 0.04 0.01 0.01 0.01 0.01 0.00
0.00 0.00 0.00 0.00 0.01 0.02 0.02 0.02 0.02 0.03 0.04 0.04 0.05 0.06 0.06 0.05 0.06 0.06 0.04 0.02 0.01 0.01 0.02 0.05 0.06 0.08 0.12 0.14 0.17 0.15 0.14 0.14 0.14 0.15 0.15 0.14 0.11 0.08 0.05 0.03 0.01 0.01 0.01
0.00 0.00 0.00 0.00 0.01 0.03 0.03 0.03 0.03 0.04 0.05 0.05 0.06 0.07 0.07 0.05 0.06 0.07 0.06 0.04 0.02 0.01 0.01 0.01 0.03 0.05 0.07 0.10 0.14 0.15 0.16 0.15 0.15 0.14 0.15 0.14 0.13 0.11 0.09 0.06 0.04 0.03 0.01
0.00 0.00 0.01 0.01 0.02 0.03 0.04 0.05 0.05 0.05 0.05 0.06 0.06 0.06 0.06 0.06 0.05 0.05 0.05 0.05 0.03 0.02 0.01 0.01 0.01 0.03 0.05 0.07 0.09 0.11 0.13 0.15 0.17 0.14 0.14 0.12 0.11 0.10 0.09 0.07 0.06 0.05 0.02
0.01 0.01 0.02 0.03 0.04 0.04 0.05 0.06 0.07 0.06 0.06 0.07 0.07 0.06 0.05 0.05 0.04 0.04 0.05 0.04 0.04 0.03 0.02 0.02 0.01 0.01 0.02 0.05 0.06 0.08 0.10 0.11 0.12 0.13 0.14 0.11 0.09 0.09 0.07 0.07 0.07 0.06 0.04
0.02 0.02 0.03 0.04 0.04 0.05 0.05 0.06 0.07 0.08 0.09 0.09 0.08 0.07 0.07 0.04 0.04 0.04 0.04 0.04 0.05 0.05 0.05 0.04 0.03 0.01 0.01 0.01 0.03 0.05 0.07 0.08 0.10 0.11 0.13 0.12 0.09 0.08 0.08 0.08 0.07 0.05 0.03
0.03 0.03 0.04 0.04 0.05 0.06 0.05 0.07 0.09 0.10 0.11 0.11 0.09 0.09 0.09 0.08 0.06 0.03 0.02 0.03 0.04 0.05 0.07 0.07 0.03 0.01 0.01 0.01 0.01 0.02 0.03 0.04 0.06 0.08 0.11 0.13 0.11 0.09 0.09 0.08 0.08 0.06 0.04
0.03 0.03 0.04 0.05 0.05 0.07 0.08 0.09 0.10 0.11 0.10 0.11 0.11 0.11 0.12 0.11 0.08 0.03 0.02 0.02 0.03 0.04 0.05 0.06 0.05 0.04 0.03 0.02 0.02 0.02 0.02 0.02 0.02 0.03 0.05 0.10 0.13 0.12 0.11 0.11 0.11 0.08 0.06
0.03 0.04 0.04 0.05 0.07 0.07 0.08 0.10 0.10 0.09 0.10 0.11 0.12 0.13 0.14 0.13 0.08 0.04 0.02 0.02 0.04 0.04 0.04 0.05 0.06 0.06 0.04 0.02 0.02 0.02 0.03 0.03 0.02 0.02 0.03 0.05 0.09 0.12 0.13 0.11 0.09 0.08 0.05
0.03 0.04 0.04 0.07 0.08 0.08 0.09 0.11 0.12 0.11 0.10 0.11 0.12 0.13 0.14 0.14 0.09 0.03 0.02 0.03 0.05 0.06 0.08 0.07 0.04 0.04 0.03 0.02 0.02 0.03 0.03 0.03 0.03 0.03 0.02 0.03 0.04 0.06 0.08 0.08 0.07 0.07 0.05
0.04 0.05 0.06 0.08 0.09 0.09 0.10 0.11 0.12 0.12 0.12 0.12 0.12 0.13 0.14 0.13 0.09 0.03 0.01 0.02 0.06 0.08 0.09 0.10 0.07 0.04 0.01 0.01 0.01 0.02 0.03 0.04 0.06 0.06 0.06 0.05 0.06 0.05 0.05 0.07 0.07 0.06 0.05
0.04 0.05 0.06 0.08 0.07 0.06 0.10 0.11 0.12 0.12 0.13 0.13 0.13 0.13 0.15 0.12 0.07 0.04 0.01 0.01 0.03 0.08 0.11 0.12 0.10 0.05 0.02 0.01 0.00 0.00 0.00 0.01 0.04 0.06 0.07 0.06 0.06 0.06 0.06 0.08 0.07 0.07 0.06
0.05 0.06 0.07 0.07 0.08 0.09 0.10 0.12 0.13 0.14 0.14 0.14 0.13 0.13 0.14 0.14 0.09 0.02 0.01 0.00 0.00 0.03 0.06 0.07 0.06 0.03 0.02 0.01 0.01 0.00 0.00 0.01 0.03 0.05 0.06 0.06 0.06 0.07 0.09 0.10 0.10 0.09 0.08
0.06 0.07 0.07 0.08 0.08 0.09 0.12 0.13 0.13 0.13 0.13 0.14 0.13 0.14 0.14 0.14 0.12 0.09 0.06 0.03 0.01 0.01 0.02 0.02 0.02 0.01 0.01 0.01 0.01 0.00 0.00 0.01 0.03 0.05 0.06 0.07 0.08 0.09 0.11 0.11 0.09 0.08 0.08
0.06 0.07 0.07 0.08 0.09 0.10 0.11 0.09 0.07 0.07 0.05 0.06 0.08 0.12 0.13 0.12 0.08 0.06 0.07 0.09 0.08 0.05 0.05 0.07 0.06 0.05 0.03 0.02 0.03 0.03 0.02 0.02 0.02 0.05 0.08 0.08 0.09 0.10 0.11 0.12 0.11 0.08 0.06
0.07 0.07 0.07 0.08 0.09 0.11 0.12 0.10 0.05 0.02 0.01 0.01 0.01 0.02 0.03 0.03 0.02 0.01 0.01 0.02 0.02 0.02 0.04 0.08 0.09 0.08 0.07 0.07 0.06 0.06 0.05 0.04 0.04 0.06 0.10 0.09 0.09 0.11 0.11 0.13 0.12 0.08 0.06
0.07 0.07 0.07 0.08 0.09 0.10 0.11 0.12 0.11 0.07 0.03 0.02 0.01 0.01 0.01 0.01 0.01 0.00 0.01 0.01 0.00 0.01 0.03 0.06 0.08 0.09 0.10 0.10 0.09 0.08 0.06 0.06 0.08 0.09 0.12 0.14 0.13 0.12 0.12 0.12 0.13 0.11 0.08
0.06 0.05 0.06 0.08 0.09 0.09 0.09 0.10 0.11 0.12 0.10 0.07 0.03 0.01 0.01 0.01 0.01 0.01 0.01 0.01 0.02 0.03 0.05 0.07 0.08 0.09 0.08 0.10 0.13 0.11 0.08 0.07 0.09 0.10 0.12 0.15 0.15 0.15 0.14 0.12 0.11 0.11 0.09
0.04 0.04 0.05 0.07 0.08 0.07 0.06 0.06 0.07 0.09 0.10 0.10 0.07 0.03 0.02 0.01 0.01 0.01 0.01 0.04 0.09 0.11 0.09 0.09 0.10 0.10 0.11 0.13 0.14 0.13 0.11 0.09 0.10 0.11 0.12 0.13 0.15 0.16 0.16 0.15 0.13 0.11 0.09
0.05 0.02 0.02 0.05 0.06 0.06 0.06 0.06 0.07 0.08 0.09 0.09 0.09 0.06 0.04 0.04 0.06 0.05 0.04 0.07 0.11 0.12 0.10 0.10 0.11 0.11 0.11 0.14 0.16 0.16 0.15 0.14 0.14 0.14 0.13 0.14 0.14 0.16 0.17 0.16 0.12 0.10 0.09
0.04 0.03 0.03 0.04 0.05 0.05 0.06 0.07 0.08 0.08 0.07 0.06 0.05 0.03 0.03 0.06 0.11 0.12 0.10 0.10 0.12 0.12 0.11 0.11 0.13 0.12 0.12 0.14 0.17 0.17 0.17 0.16 0.15 0.13 0.13 0.14 0.14 0.15 0.17 0.15 0.12 0.09 0.08
0.04 0.04 0.04 0.05 0.04 0.04 0.05 0.07 0.08 0.09 0.07 0.05 0.04 0.03 0.03 0.06 0.09 0.11 0.10 0.10 0.11 0.12 0.14 0.17 0.17 0.17 0.16 0.16 0.16 0.15 0.16 0.15 0.14 0.15 0.15 0.15 0.15 0.15 0.14 0.15 0.12 0.09 0.08
0.03 0.03 0.03 0.04 0.03 0.03 0.05 0.06 0.07 0.07 0.06 0.06 0.05 0.05 0.05 0.08 0.09 0.09 0.09 0.10 0.12 0.14 0.16 0.17 0.18 0.17 0.15 0.14 0.15 0.14 0.13 0.15 0.16 0.16 0.15 0.14 0.13 0.12 0.10 0.11 0.11 0.10 0.08
0.01 0.01 0.02 0.02 0.03 0.03 0.04 0.05 0.06 0.05 0.05 0.06 0.07 0.06 0.07 0.09 0.10 0.09 0.08 0.08 0.09 0.12 0.13 0.14 0.12 0.11 0.10 0.11 0.11 0.12 0.12 0.13 0.15 0.16 0.14 0.13 0.11 0.10 0.09 0.10 0.09 0.08 0.08
0.02 0.02 0.02 0.01 0.02 0.02 0.03 0.04 0.05 0.06 0.07 0.06 0.05 0.05 0.06 0.07 0.08 0.08 0.08 0.10 0.10 0.10 0.09 0.09 0.08 0.07 0.07 0.07 0.07 0.07 0.07 0.09 0.12 0.14 0.12 0.11 0.10 0.09 0.08 0.09 0.08 0.08 0.07
0.01 0.01 0.02 0.01 0.01 0.02 0.03 0.03 0.04 0.04 0.05 0.05 0.04 0.04 0.05 0.05 0.07 0.07 0.08 0.09 0.09 0.07 0.06 0.06 0.06 0.05 0.05 0.06 0.06 0.05 0.06 0.08 0.10 0.10 0.09 0.08 0.07 0.06 0.05 0.05 0.05 0.05 0.05
MSLP
1010.16 1010.11 1010.05 1009.93 1009.70 1009.37 1008.93 1008.42 1007.90 1007.43 1007.04 1006.78 1006.66 1006.66 1006.75 1006.90 1007.05 1007.19 1007.29 1007.35 1007.38 1007.40 1007.43 1007.49 1007.58 1007.71 1007.86 1008.05 1008.25 1008.46 1008.67 1008.89 1009.11 1009.33 1009.56 1009.80 1010.03 1010.27 1010.50 1010.73 1010.95 1011.17 1011.40
1010.01 1009.95 1009.88 1009.76 1009.54 1009.22 1008.79 1008.29 1007.77 1007.27 1006.85 1006.54 1006.36 1006.31 1006.35 1006.46 1006.60 1006.75 1006.88 1006.98 1007.06 1007.13 1007.21 1007.31 1007.44 1007.60 1007.79 1007.99 1008.22 1008.45 1008.69 1008.93 1009.17 1009.40 1009.64 1009.86 1010.08 1010.27 1010.45 1010.61 1010.75 1010.89 1011.04
1009.89 1009.80 1009.72 1009.59 1009.37 1009.04 1008.60 1008.09 1007.55 1007.02 1006.55 1006.19 1005.95 1005.83 1005.81 1005.87 1005.99 1006.12 1006.27 1006.40 1006.54 1006.68 1006.83 1007.00 1007.19 1007.41 1007.66 1007.91 1008.18 1008.44 1008.70 1008.96 1009.22 1009.46 1009.69 1009.91 1010.10 1010.26 1010.39 1010.50 1010.58 1010.65 1010.72
1009.81 1009.70 1009.58 1009.41 1009.16 1008.79 1008.33 1007.79 1007.21 1006.65 1006.14 1005.73 1005.43 1005.25 1005.18 1005.19 1005.28 1005.40 1005.55 1005.72 1005.91 1006.12 1006.35 1006.61 1006.89 1007.19 1007.49 1007.80 1008.11 1008.40 1008.68 1008.95 1009.21 1009.44 1009.66 1009.86 1010.03 1010.17 1010.27 1010.34 1010.38 1010.40 1010.43
1009.77 1009.62 1009.45 1009.22 1008.90 1008.47 1007.95 1007.37 1006.76 1006.17 1005.63 1005.19 1004.85 1004.64 1004.53 1004.51 1004.57 1004.68 1004.85 1005.05 1005.29 1005.57 1005.88 1006.21 1006.57 1006.94 1007.31 1007.67 1008.00 1008.31 1008.59 1008.85 1009.08 1009.30 1009.50 1009.68 1009.83 1009.95 1010.04 1010.10 1010.12 1010.13 1010.14
1009.75 1009.55 1009.30 1008.98 1008.56 1008.05 1007.46 1006.83 1006.19 1005.58 1005.04 1004.59 1004.26 1004.03 1003.91 1003.89 1003.94 1004.06 1004.23 1004.47 1004.75 1005.08 1005.45 1005.85 1006.27 1006.70 1007.10 1007.48 1007.82 1008.12 1008.38 1008.61 1008.81 1008.99 1009.16 1009.32 1009.46 1009.58 1009.67 1009.74 1009.78 1009.81 1009.83
1009.71 1009.43 1009.09 1008.66 1008.13 1007.53 1006.88 1006.20 1005.55 1004.95 1004.43 1004.01 1003.70 1003.50 1003.40 1003.39 1003.45 1003.58 1003.77 1004.02 1004.34 1004.70 1005.10 1005.54 1005.99 1006.44 1006.85 1007.23 1007.55 1007.82 1008.04 1008.23 1008.38 1008.52 1008.66 1008.80 1008.94 1009.06 1009.18 1009.28 1009.36 1009.43 1009.50
1009.61 1009.25 1008.80 1008.26 1007.63 1006.94 1006.23 1005.54 1004.89 1004.32 1003.85 1003.49 1003.24 1003.10 1003.04 1003.06 1003.14 1003.29 1003.49 1003.74 1004.06 1004.43 1004.84 1005.27 1005.72 1006.16 1006.56 1006.90 1007.19 1007.42 1007.59 1007.72 1007.83 1007.94 1008.05 1008.17 1008.31 1008.46 1008.61 1008.75 1008.89 1009.02 1009.14
1009.45 1009.00 1008.44 1007.80 1007.09 1006.34 1005.60 1004.90 1004.29 1003.78 1003.38 1003.10 1002.93 1002.86 1002.85 1002.91 1003.02 1003.17 1003.37 1003.61 1003.91 1004.25 1004.64 1005.05 1005.46 1005.86 1006.22 1006.52 1006.76 1006.94 1007.06 1007.15 1007.23 1007.30 1007.40 1007.52 1007.66 1007.83 1008.02 1008.21 1008.40 1008.58 1008.77
1009.20 1008.67 1008.03 1007.32 1006.55 1005.78 1005.04 1004.38 1003.83 1003.39 1003.08 1002.90 1002.81 1002.81 1002.86 1002.95 1003.07 1003.22 1003.40 1003.61 1003.87 1004.17 1004.50 1004.85 1005.21 1005.55 1005.86 1006.11 1006.30 1006.43 1006.52 1006.58 1006.63 1006.69 1006.78 1006.90 1007.06 1007.25 1007.47 1007.69 1007.92 1008.15 1008.38
1008.89 1008.29 1007.61 1006.86 1006.08 1005.32 1004.63 1004.03 1003.56 1003.22 1003.00 1002.90 1002.89 1002.95 1003.04 1003.15 1003.28 1003.41 1003.56 1003.73 1003.93 1004.16 1004.43 1004.71 1005.00 1005.27 1005.51 1005.71 1005.86 1005.95 1006.01 1006.05 1006.09 1006.15 1006.24 1006.37 1006.54 1006.74 1006.97 1007.21 1007.46 1007.71 1007.96
1008.54 1007.90 1007.19 1006.45 1005.71 1005.01 1004.39 1003.88 1003.51 1003.26 1003.14 1003.11 1003.16 1003.26 1003.37 1003.49 1003.60 1003.70 1003.81 1003.93 1004.06 1004.23 1004.42 1004.63 1004.84 1005.05 1005.23 1005.37 1005.47 1005.53 1005.57 1005.60 1005.63 1005.69 1005.78 1005.91 1006.08 1006.29 1006.51 1006.75 1006.99 1007.24 1007.49
1008.16 1007.51 1006.82 1006.12 1005.45 1004.84 1004.32 1003.92 1003.64 1003.49 1003.44 1003.48 1003.57 1003.69 1003.81 1003.91 1004.00 1004.07 1004.13 1004.19 1004.27 1004.37 1004.49 1004.62 1004.76 1004.90 1005.01 1005.09 1005.15 1005.17 1005.18 1005.19 1005.21 1005.26 1005.35 1005.47 1005.64 1005.83 1006.03 1006.25 1006.47 1006.70 1006.94
1007.79 1007.15 1006.50 1005.87 1005.29 1004.79 1004.38 1004.09 1003.92 1003.84 1003.86 1003.94 1004.05 1004.16 1004.27 1004.35 1004.41 1004.44 1004.46 1004.48 1004.51 1004.55 1004.61 1004.67 1004.74 1004.81 1004.85 1004.87 1004.87 1004.84 1004.81 1004.79 1004.79 1004.81 1004.88 1004.98 1005.12 1005.29 1005.47 1005.66 1005.86 1006.07 1006.28
1007.43 1006.83 1006.24 1005.69 1005.21 1004.82 1004.53 1004.34 1004.24 1004.24 1004.29 1004.39 1004.50 1004.61 1004.69 1004.74 1004.77 1004.77 1004.76 1004.75 1004.74 1004.73 1004.74 1004.75 1004.75 1004.74 1004.71 1004.66 1004.59 1004.50 1004.41 1004.33 1004.27 1004.26 1004.28 1004.35 1004.46 1004.60 1004.76 1004.93 1005.12 1005.32 1005.53
1007.13 1006.55 1006.03 1005.56 1005.18 1004.89 1004.69 1004.58 1004.55 1004.59 1004.66 1004.76 1004.85 1004.93 1004.99 1005.01 1005.01 1004.99 1004.96 1004.93 1004.89 1004.86 1004.83 1004.79 1004.73 1004.65 1004.54 1004.41 1004.25 1004.07 1003.90 1003.75 1003.63 1003.55 1003.53 1003.56 1003.63 1003.75 1003.90 1004.07 1004.27 1004.48 1004.72
1006.88 1006.34 1005.87 1005.47 1005.17 1004.96 1004.83 1004.78 1004.79 1004.84 1004.91 1004.99 1005.06 1005.11 1005.13 1005.12 1005.09 1005.05 1005.01 1004.96 1004.91 1004.86 1004.80 1004.72 1004.61 1004.46 1004.28 1004.06 1003.81 1003.54 1003.28 1003.05 1002.85 1002.71 1002.63 1002.62 1002.67 1002.78 1002.94 1003.13 1003.37 1003.63 1003.93
1006.71 1006.20 1005.77 1005.42 1005.17 1005.01 1004.93 1004.91 1004.93 1004.98 1005.04 1005.08 1005.11 1005.11 1005.08 1005.04 1004.99 1004.93 1004.87 1004.81 1004.76 1004.69 1004.61 1004.50 1004.34 1004.14 1003.90 1003.60 1003.27 1002.92 1002.58 1002.26 1001.99 1001.79 1001.66 1001.62 1001.67 1001.79 1001.98 1002.22 1002.52 1002.85 1003.24
1006.64 1006.14 1005.73 1005.42 1005.21 1005.07 1005.01 1004.99 1005.01 1005.03 1005.04 1005.04 1005.01 1004.96 1004.89 1004.80 1004.71 1004.63 1004.55 1004.48 1004.41 1004.34 1004.24 1004.11 1003.93 1003.69 1003.40 1003.05 1002.66 1002.25 1001.85 1001.47 1001.15 1000.91 1000.76 1000.71 1000.76 1000.90 1001.14 1001.45 1001.82 1002.25 1002.72
1006.65 1006.17 1005.78 1005.48 1005.28 1005.15 1005.08 1005.05 1005.04 1005.02 1004.98 1004.92 1004.83 1004.72 1004.58 1004.44 1004.31 1004.19 1004.08 1003.99 1003.91 1003.83 1003.72 1003.59 1003.40 1003.15 1002.85 1002.48 1002.07 1001.63 1001.20 1000.80 1000.46 1000.20 1000.04 1000.00 1000.07 1000.25 1000.54 1000.91 1001.36 1001.87 1002.43
1006.74 1006.27 1005.89 1005.60 1005.39 1005.26 1005.17 1005.11 1005.06 1004.99 1004.90 1004.77 1004.61 1004.43 1004.23 1004.03 1003.84 1003.67 1003.53 1003.42 1003.32 1003.23 1003.13 1003.00 1002.83 1002.60 1002.31 1001.97 1001.57 1001.15 1000.73 1000.34 1000.01 999.76 999.61 999.59 999.69 999.91 1000.24 1000.67 1001.18 1001.75 1002.36
1006.87 1006.42 1006.04 1005.75 1005.54 1005.39 1005.28 1005.19 1005.09 1004.97 1004.82 1004.63 1004.41 1004.16 1003.89 1003.63 1003.39 1003.17 1003.00 1002.86 1002.75 1002.66 1002.57 1002.47 1002.33 1002.14 1001.90 1001.60 1001.26 1000.89 1000.52 1000.17 999.87 999.65 999.53 999.53 999.65 999.89 1000.25 1000.70 1001.23 1001.82 1002.46
1007.02 1006.58 1006.22 1005.93 1005.71 1005.54 1005.40 1005.27 1005.13 1004.97 1004.77 1004.53 1004.25 1003.94 1003.63 1003.32 1003.03 1002.78 1002.57 1002.41 1002.30 1002.21 1002.15 1002.08 1001.99 1001.87 1001.70 1001.48 1001.21 1000.91 1000.61 1000.31 1000.06 999.87 999.77 999.78 999.91 1000.14 1000.49 1000.93 1001.45 1002.02 1002.63
1007.14 1006.73 1006.38 1006.09 1005.86 1005.68 1005.51 1005.35 1005.18 1004.98 1004.75 1004.47 1004.16 1003.82 1003.47 1003.13 1002.82 1002.55 1002.33 1002.16 1002.06 1001.99 1001.96 1001.94 1001.91 1001.85 1001.76 1001.61 1001.43 1001.20 1000.96 1000.72 1000.50 1000.34 1000.24 1000.24 1000.34 1000.55 1000.85 1001.25 1001.71 1002.23 1002.78
1007.24 1006.86 1006.52 1006.24 1006.00 1005.80 1005.61 1005.43 1005.23 1005.01 1004.75 1004.46 1004.14 1003.80 1003.45 1003.11 1002.80 1002.54 1002.33 1002.18 1002.09 1002.06 1002.06 1002.08 1002.11 1002.11 1002.08 1002.00 1001.88 1001.71 1001.51 1001.30 1001.10 1000.93 1000.82 1000.78 1000.84 1000.98 1001.22 1001.54 1001.92 1002.36 1002.84
1007.34 1006.99 1006.66 1006.38 1006.13 1005.91 1005.71 1005.50 1005.29 1005.06 1004.81 1004.53 1004.22 1003.91 1003.59 1003.28 1003.01 1002.78 1002.60 1002.49 1002.43 1002.43 1002.47 1002.53 1002.59 1002.63 1002.64 1002.60 1002.50 1002.36 1002.17 1001.96 1001.75 1001.55 1001.39 1001.29 1001.27 1001.34 1001.49 1001.72 1002.03 1002.39 1002.79
Thickness
5639 5635 5632 5631 5628 5626 5623 5622 5621 5621 5621 5621 5623 5626 5628 5631 5633 5634 5637 5640 5643 5646 5650 5654 5658 5664 5668 5673 5678 5683 5687 5689 5688 5695 5703 5708 5710 5711 5711 5713 5713 5713 5713
5628 5625 5621 5619 5616 5613 5610 5608 5607 5606 5606 5606 5608 5610 5612 5615 5618 5621 5622 5627 5630 5634 5638 5642 5647 5653 5657 5662 5666 5671 5676 5681 5682 5684 5691 5696 5700 5703 5705 5707 5709 5710 5710
5618 5613 5609 5605 5601 5598 5595 5593 5591 5590 5590 5591 5591 5594 5596 5599 5603 5607 5608 5612 5617 5621 5626 5630 5635 5639 5644 5649 5655 5660 5665 5671 5675 5677 5681 5687 5690 5695 5697 5699 5702 5703 5705
5607 5602 5597 5592 5588 5585 5582 5580 5579 5578 5577 5577 5577 5579 5582 5585 5588 5592 5595 5598 5603 5607 5612 5617 5622 5627 5632 5636 5642 5648 5653 5658 5663 5667 5672 5677 5680 5686 5688 5689 5691 5695 5697
5596 5591 5586 5582 5578 5574 5571 5569 5568 5566 5565 5565 5565 5566 5568 5571 5575 5578 5581 5584 5588 5593 5598 5603 5608 5614 5620 5624 5630 5636 5641 5646 5650 5656 5661 5666 5670 5674 5679 5684 5684 5687 5690
5587 5582 5577 5573 5569 5565 5562 5560 5558 5556 5554 5553 5552 5553 5555 5559 5563 5565 5567 5571 5576 5580 5584 5588 5593 5599 5606 5612 5617 5624 5629 5633 5639 5644 5651 5657 5662 5668 5673 5676 5678 5678 5679
5579 5574 5569 5564 5560 5557 5554 5552 5549 5546 5544 5542 5542 5542 5544 5547 5550 5553 5555 5559 5565 5568 5571 5575 5580 5589 5594 5599 5605 5611 5617 5622 5628 5634 5639 5647 5653 5660 5664 5668 5670 5672 5676
5573 5567 5562 5557 5553 5549 5546 5544 5541 5537 5535 5534 5534 5535 5536 5539 5541 5543 5545 5548 5553 5557 5561 5565 5568 5574 5581 5587 5593 5599 5606 5613 5619 5625 5632 5638 5644 5651 5656 5660 5663 5665 5669
5567 5561 5557 5552 5547 5543 5541 5538 5535 5533 5531 5529 5529 5530 5531 5533 5534 5536 5537 5541 5545 5549 5553 5557 5560 5564 5570 5576 5581 5588 5595 5602 5609 5617 5623 5629 5634 5640 5645 5648 5651 5654 5655
5562 5557 5552 5547 5543 5539 5536 5533 5531 5529 5527 5527 5527 5527 5528 5530 5531 5531 5531 5535 5538 5542 5546 5551 5554 5557 5561 5565 5570 5576 5582 5590 5598 5606 5612 5618 5624 5630 5635 5640 5644 5646 5648
5559 5554 5549 5545 5541 5538 5535 5531 5529 5527 5526 5526 5525 5526 5527 5528 5528 5528 5527 5530 5534 5537 5540 5544 5548 5551 5554 5557 5562 5568 5573 5579 5587 5594 5602 5609 5615 5621 5628 5634 5638 5641 5643
5557 5552 5548 5544 5541 5539 5534 5531 5529 5527 5526 5526 5525 5525 5525 5526 5526 5526 5526 5526 5528 5531 5536 5540 5543 5545 5547 5549 5554 5560 5564 5569 5577 5584 5592 5600 5607 5614 5620 5627 5632 5636 5640
5556 5552 5548 5544 5541 5538 5535 5532 5530 5528 5526 5525 5524 5524 5524 5524 5524 5524 5523 5524 5524 5527 5532 5535 5536 5539 5541 5544 5547 5552 5556 5562 5569 5576 5584 5593 5601 5608 5614 5618 5623 5627 5631
5556 5552 5549 5545 5542 5539 5536 5533 5530 5528 5526 5525 5524 5523 5523 5523 5522 5523 5524 5524 5523 5524 5528 5531 5532 5534 5537 5542 5546 5547 5552 5559 5565 5571 5579 5587 5594 5600 5605 5610 5613 5617 5619
5557 5554 5551 5547 5544 5541 5537 5532 5530 5525 5522 5521 5522 5522 5522 5521 5517 5517 5520 5523 5524 5526 5528 5530 5532 5535 5537 5541 5545 5549 5552 5556 5560 5567 5573 5580 5587 5593 5598 5602 5606 5609 5612
5558 5555 5552 5549 5547 5544 5541 5537 5529 5526 5521 5519 5517 5517 5518 5516 5515 5516 5517 5518 5520 5522 5525 5530 5532 5535 5538 5542 5544 5547 5551 5555 5559 5564 5569 5574 5580 5586 5591 5596 5600 5603 5605
5560 5557 5554 5552 5550 5547 5544 5541 5537 5531 5525 5522 5520 5518 5517 5516 5516 5516 5517 5517 5519 5520 5525 5530 5532 5534 5537 5541 5544 5547 5550 5554 5557 5561 5565 5570 5575 5580 5585 5590 5593 5596 5599
5564 5561 5557 5555 5552 5550 5548 5545 5543 5539 5536 5532 5525 5521 5519 5518 5518 5518 5517 5518 5523 5523 5528 5531 5533 5535 5537 5540 5543 5546 5549 5551 5554 5558 5562 5566 5570 5575 5580 5584 5588 5591 5594
5566 5564 5560 5558 5556 5554 5552 5550 5547 5544 5541 5539 5535 5529 5524 5522 5521 5520 5519 5524 5528 5530 5532 5533 5534 5536 5538 5540 5542 5545 5547 5549 5552 5554 5559 5563 5567 5572 5576 5580 5584 5586 5590
5569 5565 5563 5561 5559 5557 5555 5552 5550 5548 5545 5543 5541 5538 5534 5532 5533 5532 5529 5532 5533 5534 5535 5536 5536 5537 5539 5541 5542 5544 5546 5548 5550 5552 5556 5560 5564 5569 5573 5576 5580 5583 5585
5571 5569 5566 5565 5562 5560 5557 5555 5552 5551 5549 5547 5545 5541 5536 5539 5540 5540 5540 5539 5538 5537 5537 5538 5539 5539 5541 5542 5543 5544 5546 5548 5550 5552 5555 5559 5562 5565 5569 5573 5576 5579 5582
5573 5572 5569 5567 5565 5562 5559 5557 5555 5554 5552 5550 5548 5547 5543 5544 5545 5545 5545 5544 5543 5542 5542 5541 5542 5543 5543 5544 5545 5546 5547 5548 5549 5552 5554 5557 5560 5563 5567 5570 5573 5576 5579
5576 5574 5571 5569 5567 5563 5562 5561 5559 5557 5555 5554 5553 5551 5550 5550 5550 5550 5549 5548 5547 5546 5545 5544 5544 5545 5546 5546 5546 5548 5549 5549 5551 5553 5555 5556 5559 5562 5566 5568 5572 5575 5578
5577 5575 5573 5571 5569 5566 5564 5562 5561 5559 5557 5556 5556 5554 5554 5553 5553 5553 5552 5551 5550 5549 5548 5546 5546 5547 5547 5547 5548 5549 5550 5551 5552 5554 5556 5558 5560 5563 5565 5568 5571 5573 5576
5578 5575 5573 5572 5569 5567 5566 5564 5562 5560 5559 5558 5558 5557 5557 5556 5556 5555 5555 5553 5552 5551 5550 5549 5548 5548 5548 5548 5548 5548 5549 5551 5553 5555 5557 5560 5562 5564 5566 5569 5571 5573 5575
5579 5576 5574 5572 5570 5568 5567 5566 5564 5562 5560 5560 5559 5559 5559 5559 5558 5558 5557 5555 5554 5552 5552 5551 5550 5549 5549 5549 5548 5548 5550 5552 5555 5558 5561 5563 5564 5566 5568 5570 5572 5574 5575